SCP
-0 -0 -0 0 0 0 0 0 -0 0 0 -0 0 -0 -0 0 0 0 -0 0 -0 -0 0 -0 -0 -0 -0 0 0 -0 -0 0 -0 -0 0 0 0 0 0 -0 -0 -0 -0 0 0 0 0 0 0
-0 -0 -0 0 0 0 0 -0 -0 0 0 0 -0 -0 0 0 0 -0 -0 0 -0 -0 -0 -0 -0 -0 -0 -0 -0 -0 -0 -0 -0 -0 0 0 0 0 0 -0 -0 -0 -0 0 -0 0 0 0 0
-0 -0 0 0 0 -0 0 -0 -0 -0 -0 -0 -0 0 0 0 -0 -0 -0 -0 -0 0 -0 0 -0 -0 -0 -0 0 0 0 0 0 -0 0 0 0 0 -0 -0 -0 -0 0 0 -0 0 0 0 0
0 0 0 0 0 0 -0 -0 0 0 0 0 0 0 0 -0 -0 0 -0 -0 -0 0 -0 -0 -0 -0 -0 -0 0 0 0 0 -0 -0 -0 0 0 0 -0 -0 -0 0 0 0 0 0 0 0 0
0 0 0 0 -0 -0 -0 0 -0 0 -0 0 0 0 0 0 -0 -0 -0 -0 -0 0 -0 0 -0 -0 -0 -0 0 0 0 0 0 0 0 0 0 -0 -0 -0 0 0 0 -0 0 0 0 0 0
0 0 0 -0 -0 -0 -0 -0 -0 -0 0 0 0 0 0 -0 -0 -0 -0 -0 -0 0 -0 0 -0 -0 0 0 0 0 0 0 0 0 0 -0 -0 -0 -0 0 0 -0 -0 -0 -0 -0 -0 -0 -0
0 0 0 0 -0 -0 -0 -0 -0 -0 -0 0 0 0 0 0 -0 -0 -0 -0 -0 -0 -0 -0 0 0 0 0 0 0 0 0 -0 -0 -0 -0 -0 -0 -0 -0 -0 -0 -0 -0 -0 -0 -0 -0 -0
0 0 0 0 -0 -0 -0 -0 -0 0 -0 0 0 0 -0 -0 -0 -0 -0 -0 -0 0 -0 -0 -0 -0 -0 -0 0 0 0 0 -0 -0 -0 -0 -0 -0 -0 -0 -0 -0 -0 -0 -0 -0 -0 -0 -0
0 0 0 0 0 -0 0 -0 -0 -0 -0 0 0 0 -0 -0 -0 -0 -0 0 0 0 0 0 0 -0 -0 -0 -0 -0 -0 -0 -0 -0 -0 0 0 0 -0 -0 -0 -0 -0 -0 -0 -0 -0 -0 -0
0 0 0 0 0 0 0 0 0 0 -0 0 -0 -0 -0 -0 -0 0 0 0 0 0 0 0 -0 0 -0 -0 -0 -0 -0 -0 -0 0 -0 0 0 0 -0 -0 -0 -0 -0 -0 -0 -0 -0 -0 0
0 0 0 0 0 0 0 0 0 0 -0 0 0 -0 -0 -0 -0 0 0 0 0 0 0 -0 -0 -0 -0 0 0 0 -0 0 0 0 0 0 0 0 0 0 0 0 -0 0 0 0 0 0 0
0 0 0 0 0 0 0 0 0 0 0 -0 0 0 0 -0 -0 0 0 0 0 0 0 0 -0 -0 -0 0 0 0 0 0 0 -0 -0 0 0 0 0 0 0 0 0 0 0 -0 -0 -0 -0
0 0 0 0 0 0 0 0 0 0 0 0 0 0 0 0 0 0 0 0 0 0 0 0 0 0 0 0 0 0 -0 -0 -0 -0 -0 -0 -0 0 0 0 0 0 0 0 0 0 -0 -0 -0
0 0 0 0 0 0 0 0 0 0 0 0 -0 0 0 0 0 0 0 0 0 0 0 0 0 0 0 0 0 0 0 0 -0 -0 -0 -0 -0 0 0 0 0 0 0 0 0 0 0 -0 0
0 0 0 0 0 0 0 0 0 0 0 0 0 0 0 0 0 0 0 0 0 0 0 0 0 0 0 0 0 0 0 0 0 0 0 0 0 0 0 0 0 0 0 0 0 0 0 0 0
0 0 0 0 0 0 0 0 0 0 0 0 0 0 0 0 0 0 0 0 0 0 0 0 0 0 0 0 0 0 0 0 0 0 0 0 0 0 0 0 0 0 0 0 0 0 0 0 0
0 0 0 0 0 0 0 0 0 0 0 0 0 0 0 0 0 0 0 0 0 0 0 0 0 0 0 0 0 0 0 0 0 0 0 0 0 0 0 0 0 0 0 0 0 0 0 0 0
0 0 0 0 0 0 0 -0 0 0 0 0 0 0 0 0 0 0 0 0 0 0 0 0 0 0 0 0 0 0 0 0 0 0 0 0 0 0 0 0 0 0 0 0 0 0 0 0 0
0 0 0 0 0 0 0 0 0 0 0 0 0 0 0 0 0 0 0 0 0 0 0 0 0 0 0 0 0 0 0 0 0 0 0 0 0 0 0 0 0 0 0 0 0 0 0 0 0
0 0 0 0 0 0 0 0 0 0 0 0 0 0 0 0 0 0 0 0 0 0 0 0 0 0 0 0 0 0 0 0 0 0 0 0 0 0 0 0 0 0 0 0 0 0 0 0 0
0 0 0 0 0 0 0 0 0 0 0 0 0 0 0 0 0 0 0 0 0 0 0 0 0 0 0 0 0 0 0 0 0 0 0 0 0 0 0 0 0 0 0 0 0 0 0 0 0
0 0 0 0 0 0 0 0 0 0 0 0 0 0 0 0 0 0 0 0 0 0 0 0 0 0 0 0 0 0 0 0 0 0 0 0 0 0 0 0 0 0 0 0 0 0 0 0 0
0 0 0 0 0 0 0 0 0 0 0 0 0 0 0 0 0 0 0 0 0 0 0 0 0 0 0 0 0 0 0 0 0 0 0 0 0 0 0 0 0 0 0 0 0 0 0 0 0
0 0 0 0 0 0 0 0 0 0 0 0 0 0 0 0 0 0 0 0 0 0 0 0 0 0 0 0 0 0 0 0 0 0 0 0 0 0 0 0 0 0 0 0 0 0 0 0 0
0 0 0 0 0 0 0 0 0 0 0 0 0 0 0 0 0 0 0 0 0 0 0 0 0 0 0 0 0 0 0 0 0 0 0 0 0 0 0 0 0 0 0 0 0 0 0 0 0
0 0 0 0 0 0 0 0 0 0 0 0 0 0 0 0 0 0 0 0 0 0 0 0 0 0 0 0 0 0 0 0 0 0 0 0 0 0 0 0 0 0 0 0 0 0 0 0 0
0 0 0 0 0 0 0 0 0 0 0 0 0 0 0 0 0 0 0 0 0 0 0 0 0 0 0 0 0 0 0 0 0 0 0 0 0 0 0 0 0 0 0 0 0 0 0 0 0
0 0 0 0 0 0 0 0 0 0 0 0 0 0 0 0 0 0 0 0 0 0 0 0 0 0 0 0 0 -0 0 0 0 0 0 0 0 0 0 0 0 0 0 0 0 0 0 0 0
0 0 0 0 0 0 0 0 0 0 0 0 0 0 0 0 0 0 0 0 0 0 0 0 0 0 0 0 0 0 0 0 0 0 0 0 0 0 0 0 0 0 0 0 0 0 0 0 0
0 0 0 0 0 0 0 0 0 0 0 0 0 0 0 0 0 0 0 0 0 0 0 0 0 0 0 0 0 0 0 0 0 0 0 0 0 0 0 0 0 0 0 0 0 0 0 0 0
Wind_Speed_500mb
28 29 14 5 7 11 6 5 4 8 11 15 12 6 17 10 1 5 21 32 32 34 37 35 33 34 37 40 42 41 39 39 39 38 35 33 33 35 35 33 32 29 26 24 19 18 16 18 18
27 23 11 3 9 8 5 3 23 8 15 9 16 10 11 7 4 22 33 32 34 33 39 35 35 37 38 41 41 40 39 38 36 33 30 30 30 30 30 29 27 24 19 16 12 12 13 14 15
19 15 9 8 5 6 8 6 9 5 8 8 7 21 8 6 18 43 27 41 35 34 36 34 34 37 39 39 38 38 36 35 32 29 29 29 28 27 25 23 20 17 13 11 8 8 9 12 14
12 5 10 9 4 5 7 10 15 2 6 20 12 13 14 12 18 22 34 40 35 36 35 32 32 34 36 37 36 35 33 31 29 27 27 26 25 24 22 19 15 12 10 9 6 6 9 12 14
6 4 8 6 6 6 7 28 14 9 9 18 12 5 12 9 14 31 37 35 34 36 34 31 28 29 31 32 32 31 30 28 26 25 24 23 22 20 18 16 13 11 9 7 6 6 8 10 13
2 5 8 3 8 5 8 17 7 6 20 24 15 7 5 11 27 36 33 34 31 31 31 29 26 25 26 28 28 27 27 25 24 22 20 18 17 18 17 14 11 9 6 5 5 7 9 11 14
12 8 8 8 7 7 10 5 3 9 20 15 12 6 5 25 35 37 37 35 33 31 29 28 27 24 23 24 24 23 22 22 21 19 17 16 15 14 13 11 11 10 10 9 9 10 10 13 13
13 10 8 8 12 9 4 9 6 11 11 18 8 9 12 28 37 36 34 32 31 30 28 28 27 25 24 24 24 22 20 19 17 16 14 12 12 10 9 8 6 7 10 12 12 10 10 13 13
15 9 7 11 15 9 21 7 8 7 19 10 2 8 25 45 40 37 37 32 29 28 28 29 28 26 25 23 22 22 21 19 17 15 13 13 13 8 6 1 4 9 8 9 9 9 9 11 14
9 8 20 14 16 12 23 21 20 10 18 9 36 35 43 44 39 42 42 37 32 28 28 29 28 27 25 22 22 20 19 17 17 18 18 16 16 13 10 10 11 11 11 11 12 12 13 13 16
13 13 11 9 21 41 37 15 13 23 6 8 24 49 51 48 41 42 39 34 32 29 26 28 27 24 21 19 21 21 21 21 23 23 20 18 18 18 18 18 18 18 18 19 19 19 20 22 21
8 13 11 6 29 38 33 30 13 9 11 25 45 52 55 53 46 41 43 39 32 27 25 26 25 22 19 16 16 19 18 20 20 20 20 18 16 16 21 23 22 22 23 25 28 30 31 31 32
7 10 7 15 36 37 38 16 17 19 26 39 44 47 52 49 46 42 37 36 33 27 24 25 27 26 19 19 16 19 20 23 23 23 23 24 23 23 23 23 24 27 30 34 38 40 41 41 41
5 14 18 22 28 15 21 14 13 17 34 40 43 47 47 46 43 40 36 32 30 28 23 22 24 25 20 19 17 18 19 22 25 28 28 29 31 30 30 30 30 32 35 40 42 45 49 50 49
17 11 14 6 10 9 39 2 6 41 41 44 46 46 44 41 37 33 31 29 28 27 26 22 23 23 20 20 19 18 19 18 19 20 21 22 24 27 29 32 34 36 38 41 42 42 44 46 50
11 10 7 6 6 14 5 14 13 51 53 48 46 42 40 36 32 29 24 21 23 25 25 26 25 23 22 23 23 23 21 21 21 23 22 21 20 22 25 29 33 35 38 40 42 46 48 50 52
12 5 4 2 12 8 5 11 23 54 53 46 45 42 37 34 30 25 22 22 21 22 24 27 31 32 34 34 34 31 29 26 22 18 18 18 18 19 24 29 33 39 42 46 50 54 58 59 57
13 7 5 12 24 12 8 21 20 47 45 47 48 42 37 32 27 23 19 16 16 18 20 21 23 26 28 29 29 28 26 22 18 18 18 19 19 21 24 32 41 47 48 51 48 51 52 56 60
12 10 10 11 5 13 26 19 18 36 34 41 48 49 42 34 28 19 13 9 10 15 16 18 17 19 19 21 22 21 18 16 13 12 13 18 25 33 37 39 35 31 33 34 33 33 36 41 47
7 9 11 10 5 21 16 29 7 30 30 44 51 49 46 41 32 21 16 14 13 13 13 15 20 22 24 23 21 18 13 10 10 14 18 20 20 21 22 24 22 24 26 26 28 29 29 32 37
11 13 12 17 5 7 11 12 10 12 19 39 49 53 51 50 40 31 22 15 12 11 12 14 15 16 18 17 16 13 10 6 7 9 12 12 12 13 15 16 19 20 21 23 26 27 29 31 31
7 20 17 17 12 11 17 12 11 17 17 27 47 56 60 54 42 36 29 23 18 17 15 13 14 14 14 11 9 7 5 3 4 4 8 9 12 13 15 16 17 19 21 21 25 28 29 29 30
19 11 20 16 21 10 5 3 14 22 16 32 49 66 68 60 52 45 34 26 25 22 20 19 19 20 20 16 14 11 11 12 12 10 9 9 11 15 17 18 18 18 20 21 23 26 31 34 35
12 7 11 9 9 4 21 23 9 14 35 49 36 62 76 69 58 46 38 33 30 28 23 20 19 21 19 16 16 13 14 15 11 10 8 9 10 13 15 18 21 22 22 21 22 27 30 34 35
6 10 5 7 2 12 8 14 15 16 10 15 44 67 80 74 65 55 48 40 31 26 23 20 19 23 21 18 17 17 15 13 11 11 12 13 13 15 19 24 27 29 30 28 25 27 28 32 33
12 16 10 11 7 12 11 12 10 12 33 29 52 66 81 78 66 56 47 38 31 26 24 23 19 21 22 19 20 19 17 16 17 15 14 15 15 16 20 23 26 28 28 26 25 28 29 32 33
3 8 7 6 6 3 7 10 4 21 22 30 49 64 75 80 68 57 47 38 30 28 25 21 21 21 22 18 19 20 19 19 20 18 15 15 15 15 17 20 25 28 28 27 28 27 28 31 33
5 1 1 6 8 11 6 8 9 10 5 7 30 45 67 74 64 55 48 37 33 29 28 22 19 20 19 18 16 15 17 15 18 20 16 13 13 14 15 19 23 26 27 27 28 29 31 34 36
1 4 7 9 2 6 3 10 6 14 14 17 19 41 70 73 63 54 44 36 30 26 24 22 12 5 9 7 3 8 11 11 15 16 18 11 10 11 14 18 23 23 25 26 29 32 34 35 37
2 4 10 8 8 2 4 11 7 11 26 41 39 49 64 66 57 53 48 40 31 26 21 16 10 1 5 3 2 4 4 6 9 14 16 10 11 11 14 18 22 25 29 31 33 36 38 41 43
Wind_Direction_500mb
352 348 360 123 61 65 20 23 215 357 23 9 90 103 122 69 39 188 149 158 161 161 149 144 144 143 144 139 136 134 132 132 128 124 119 117 112 114 113 111 107 103 100 98 95 85 80 78 75
351 345 344 93 79 63 291 167 158 244 332 284 91 90 77 82 87 147 143 152 157 162 147 142 144 143 143 135 134 134 132 133 131 125 121 121 117 119 120 118 116 115 110 100 91 81 77 66 58
352 356 358 78 94 137 174 197 185 208 23 30 99 53 68 94 122 137 138 150 159 158 146 142 144 144 139 136 135 133 134 134 131 125 119 118 118 120 124 124 120 118 111 95 72 71 58 42 34
336 3 44 71 303 229 199 244 192 67 91 78 97 87 86 108 127 146 146 153 157 152 144 143 145 144 138 139 137 135 136 135 131 124 120 119 118 117 117 117 114 112 104 92 63 20 24 19 12
319 46 65 65 287 250 250 250 237 144 71 34 35 84 98 161 164 152 146 149 155 147 145 144 147 144 140 138 138 138 137 135 133 129 124 121 119 117 114 110 104 95 87 74 44 358 357 0 349
171 80 70 198 258 245 264 192 207 45 93 49 86 55 56 145 151 144 145 149 150 148 147 146 146 146 142 139 140 140 139 138 137 133 128 125 120 114 108 103 95 84 65 44 13 345 338 338 327
144 91 186 175 222 280 216 149 102 129 98 51 89 67 111 145 150 153 152 151 149 151 151 152 151 151 147 144 143 143 142 142 139 135 132 129 121 115 111 98 76 49 24 5 352 336 323 319 312
170 98 121 213 198 246 124 105 110 76 60 122 103 181 176 171 159 151 153 151 150 153 157 158 160 159 157 155 154 153 155 152 147 144 141 140 128 117 109 91 53 4 345 337 337 332 324 324 326
174 80 182 213 171 223 160 121 125 112 90 72 12 176 183 168 152 151 152 150 155 160 163 165 166 166 167 168 165 166 167 165 159 160 164 167 164 155 165 182 327 317 314 308 305 297 293 307 322
126 138 207 204 174 174 158 141 141 122 109 92 96 119 162 157 157 156 157 155 160 162 171 171 169 170 171 180 181 181 181 174 173 181 185 188 196 202 206 230 239 253 279 288 296 300 301 304 317
186 182 203 243 199 163 144 116 134 128 117 191 154 138 157 163 160 157 153 155 156 165 170 167 169 173 175 182 192 193 194 191 197 199 199 204 208 214 233 242 249 254 265 276 281 287 289 295 298
171 248 171 161 169 150 141 140 105 152 128 170 163 160 166 165 164 161 154 156 161 168 174 180 181 185 191 190 192 191 193 198 204 204 204 209 222 244 253 262 268 272 275 279 280 279 283 288 296
202 194 169 146 146 130 133 112 124 108 148 159 162 162 160 162 161 162 161 161 167 178 183 193 201 203 212 208 213 215 220 223 226 232 234 236 243 255 266 273 278 284 289 292 292 288 283 283 283
185 100 91 114 121 106 113 133 123 164 162 158 165 159 160 163 166 167 168 173 177 187 190 185 193 204 215 216 220 221 227 238 245 247 249 251 256 262 269 275 281 286 291 298 302 298 291 288 288
85 83 53 48 124 109 112 350 210 167 173 156 156 154 156 160 162 170 174 182 184 194 196 196 195 200 210 218 222 223 224 228 236 248 253 260 262 266 271 276 280 283 288 292 296 297 299 298 294
68 55 94 284 114 153 146 233 142 168 171 157 154 156 157 156 166 172 180 186 192 195 201 212 223 224 220 221 219 218 221 225 229 236 242 247 252 260 268 273 280 286 291 294 296 296 294 294 293
21 165 175 143 212 147 158 252 161 176 175 160 166 165 164 164 169 175 184 194 203 206 205 206 211 216 218 220 224 228 230 232 233 232 241 252 262 271 280 288 291 292 294 295 295 296 297 297 295
189 170 227 210 200 196 190 257 159 179 178 169 176 177 176 176 176 184 192 202 211 215 217 214 210 210 209 208 212 214 217 226 237 251 264 273 280 284 290 292 291 290 290 291 293 297 299 301 303
143 151 179 256 156 153 221 247 185 186 189 171 180 185 182 182 185 180 185 202 234 246 248 235 228 217 208 209 215 222 222 233 246 266 283 292 299 300 298 297 294 302 304 306 311 312 310 307 311
138 143 224 310 196 180 202 243 181 178 207 193 183 188 186 185 177 174 183 190 200 209 219 222 224 223 223 226 231 226 230 241 285 307 313 313 312 316 313 318 327 328 328 327 325 330 334 332 329
173 167 199 207 108 50 103 305 201 207 177 200 208 203 194 188 174 171 167 161 158 164 165 175 181 189 193 196 209 215 225 240 268 304 319 336 350 344 355 1 3 2 1 360 3 2 1 8 2
246 205 192 159 131 206 176 252 252 194 179 192 189 195 192 181 175 173 168 153 143 138 137 146 153 163 169 178 201 203 201 173 118 70 47 38 28 29 29 26 22 14 12 9 12 13 9 9 21
226 171 181 169 194 126 179 167 250 152 202 213 193 188 189 182 178 170 158 151 143 135 132 128 124 120 116 120 112 112 113 98 85 72 58 45 33 31 28 26 24 15 15 18 18 15 13 9 10
247 107 54 60 119 200 208 194 233 185 211 220 174 180 184 179 174 163 157 154 144 135 132 127 123 109 98 96 95 90 87 84 78 69 52 47 41 37 35 35 34 32 30 27 23 19 16 15 13
122 75 316 315 333 232 213 184 235 236 257 221 184 171 177 176 170 166 166 159 151 145 137 126 115 104 85 76 80 80 81 80 72 65 55 52 47 47 46 41 36 31 29 26 23 13 9 10 6
188 166 171 246 227 266 97 224 244 291 281 284 175 163 171 174 169 172 167 159 151 150 142 126 114 103 85 66 68 73 73 60 55 55 55 46 40 43 42 38 31 27 24 23 17 10 10 9 5
178 177 197 176 35 83 219 292 73 22 17 115 142 152 162 169 170 171 164 158 151 154 143 129 122 105 91 76 68 75 66 64 51 47 37 32 39 36 29 26 24 23 21 19 18 14 10 6 2
141 333 289 18 198 226 277 294 256 4 62 103 147 151 155 164 171 168 164 162 149 163 149 142 122 107 96 73 55 67 74 61 47 34 28 21 35 31 18 15 17 19 21 17 14 9 6 5 1
314 24 48 110 65 193 292 262 224 271 171 152 139 152 158 166 169 167 163 159 153 163 161 157 165 114 94 83 124 58 54 46 40 23 19 18 48 40 22 12 13 18 22 18 12 6 2 0 357
72 186 127 129 264 158 113 275 337 168 154 147 149 156 164 170 167 163 162 161 164 159 163 170 168 154 37 88 124 54 42 32 36 18 23 22 48 47 30 20 21 23 24 19 13 9 3 358 356
Wind_Speed_850mb
28 29 14 5 7 11 6 5 4 8 11 15 12 6 17 10 1 5 21 32 32 34 37 35 33 34 37 40 42 41 39 39 39 38 35 33 33 35 35 33 32 29 26 24 19 18 16 18 18
27 23 11 3 9 8 5 3 23 8 15 9 16 10 11 7 4 22 33 32 34 33 39 35 35 37 38 41 41 40 39 38 36 33 30 30 30 30 30 29 27 24 19 16 12 12 13 14 15
19 15 9 8 5 6 8 6 9 5 8 8 7 21 8 6 18 43 27 41 35 34 36 34 34 37 39 39 38 38 36 35 32 29 29 29 28 27 25 23 20 17 13 11 8 8 9 12 14
12 5 10 9 4 5 7 10 15 2 6 20 12 13 14 12 18 22 34 40 35 36 35 32 32 34 36 37 36 35 33 31 29 27 27 26 25 24 22 19 15 12 10 9 6 6 9 12 14
6 4 8 6 6 6 7 28 14 9 9 18 12 5 12 9 14 31 37 35 34 36 34 31 28 29 31 32 32 31 30 28 26 25 24 23 22 20 18 16 13 11 9 7 6 6 8 10 13
2 5 8 3 8 5 8 17 7 6 20 24 15 7 5 11 27 36 33 34 31 31 31 29 26 25 26 28 28 27 27 25 24 22 20 18 17 18 17 14 11 9 6 5 5 7 9 11 14
12 8 8 8 7 7 10 5 3 9 20 15 12 6 5 25 35 37 37 35 33 31 29 28 27 24 23 24 24 23 22 22 21 19 17 16 15 14 13 11 11 10 10 9 9 10 10 13 13
13 10 8 8 12 9 4 9 6 11 11 18 8 9 12 28 37 36 34 32 31 30 28 28 27 25 24 24 24 22 20 19 17 16 14 12 12 10 9 8 6 7 10 12 12 10 10 13 13
15 9 7 11 15 9 21 7 8 7 19 10 2 8 25 45 40 37 37 32 29 28 28 29 28 26 25 23 22 22 21 19 17 15 13 13 13 8 6 1 4 9 8 9 9 9 9 11 14
9 8 20 14 16 12 23 21 20 10 18 9 36 35 43 44 39 42 42 37 32 28 28 29 28 27 25 22 22 20 19 17 17 18 18 16 16 13 10 10 11 11 11 11 12 12 13 13 16
13 13 11 9 21 41 37 15 13 23 6 8 24 49 51 48 41 42 39 34 32 29 26 28 27 24 21 19 21 21 21 21 23 23 20 18 18 18 18 18 18 18 18 19 19 19 20 22 21
8 13 11 6 29 38 33 30 13 9 11 25 45 52 55 53 46 41 43 39 32 27 25 26 25 22 19 16 16 19 18 20 20 20 20 18 16 16 21 23 22 22 23 25 28 30 31 31 32
7 10 7 15 36 37 38 16 17 19 26 39 44 47 52 49 46 42 37 36 33 27 24 25 27 26 19 19 16 19 20 23 23 23 23 24 23 23 23 23 24 27 30 34 38 40 41 41 41
5 14 18 22 28 15 21 14 13 17 34 40 43 47 47 46 43 40 36 32 30 28 23 22 24 25 20 19 17 18 19 22 25 28 28 29 31 30 30 30 30 32 35 40 42 45 49 50 49
17 11 14 6 10 9 39 2 6 41 41 44 46 46 44 41 37 33 31 29 28 27 26 22 23 23 20 20 19 18 19 18 19 20 21 22 24 27 29 32 34 36 38 41 42 42 44 46 50
11 10 7 6 6 14 5 14 13 51 53 48 46 42 40 36 32 29 24 21 23 25 25 26 25 23 22 23 23 23 21 21 21 23 22 21 20 22 25 29 33 35 38 40 42 46 48 50 52
12 5 4 2 12 8 5 11 23 54 53 46 45 42 37 34 30 25 22 22 21 22 24 27 31 32 34 34 34 31 29 26 22 18 18 18 18 19 24 29 33 39 42 46 50 54 58 59 57
13 7 5 12 24 12 8 21 20 47 45 47 48 42 37 32 27 23 19 16 16 18 20 21 23 26 28 29 29 28 26 22 18 18 18 19 19 21 24 32 41 47 48 51 48 51 52 56 60
12 10 10 11 5 13 26 19 18 36 34 41 48 49 42 34 28 19 13 9 10 15 16 18 17 19 19 21 22 21 18 16 13 12 13 18 25 33 37 39 35 31 33 34 33 33 36 41 47
7 9 11 10 5 21 16 29 7 30 30 44 51 49 46 41 32 21 16 14 13 13 13 15 20 22 24 23 21 18 13 10 10 14 18 20 20 21 22 24 22 24 26 26 28 29 29 32 37
11 13 12 17 5 7 11 12 10 12 19 39 49 53 51 50 40 31 22 15 12 11 12 14 15 16 18 17 16 13 10 6 7 9 12 12 12 13 15 16 19 20 21 23 26 27 29 31 31
7 20 17 17 12 11 17 12 11 17 17 27 47 56 60 54 42 36 29 23 18 17 15 13 14 14 14 11 9 7 5 3 4 4 8 9 12 13 15 16 17 19 21 21 25 28 29 29 30
19 11 20 16 21 10 5 3 14 22 16 32 49 66 68 60 52 45 34 26 25 22 20 19 19 20 20 16 14 11 11 12 12 10 9 9 11 15 17 18 18 18 20 21 23 26 31 34 35
12 7 11 9 9 4 21 23 9 14 35 49 36 62 76 69 58 46 38 33 30 28 23 20 19 21 19 16 16 13 14 15 11 10 8 9 10 13 15 18 21 22 22 21 22 27 30 34 35
6 10 5 7 2 12 8 14 15 16 10 15 44 67 80 74 65 55 48 40 31 26 23 20 19 23 21 18 17 17 15 13 11 11 12 13 13 15 19 24 27 29 30 28 25 27 28 32 33
12 16 10 11 7 12 11 12 10 12 33 29 52 66 81 78 66 56 47 38 31 26 24 23 19 21 22 19 20 19 17 16 17 15 14 15 15 16 20 23 26 28 28 26 25 28 29 32 33
3 8 7 6 6 3 7 10 4 21 22 30 49 64 75 80 68 57 47 38 30 28 25 21 21 21 22 18 19 20 19 19 20 18 15 15 15 15 17 20 25 28 28 27 28 27 28 31 33
5 1 1 6 8 11 6 8 9 10 5 7 30 45 67 74 64 55 48 37 33 29 28 22 19 20 19 18 16 15 17 15 18 20 16 13 13 14 15 19 23 26 27 27 28 29 31 34 36
1 4 7 9 2 6 3 10 6 14 14 17 19 41 70 73 63 54 44 36 30 26 24 22 12 5 9 7 3 8 11 11 15 16 18 11 10 11 14 18 23 23 25 26 29 32 34 35 37
2 4 10 8 8 2 4 11 7 11 26 41 39 49 64 66 57 53 48 40 31 26 21 16 10 1 5 3 2 4 4 6 9 14 16 10 11 11 14 18 22 25 29 31 33 36 38 41 43
Wind_Direction_850mb
352 348 360 123 61 65 20 23 215 357 23 9 90 103 122 69 39 188 149 158 161 161 149 144 144 143 144 139 136 134 132 132 128 124 119 117 112 114 113 111 107 103 100 98 95 85 80 78 75
351 345 344 93 79 63 291 167 158 244 332 284 91 90 77 82 87 147 143 152 157 162 147 142 144 143 143 135 134 134 132 133 131 125 121 121 117 119 120 118 116 115 110 100 91 81 77 66 58
352 356 358 78 94 137 174 197 185 208 23 30 99 53 68 94 122 137 138 150 159 158 146 142 144 144 139 136 135 133 134 134 131 125 119 118 118 120 124 124 120 118 111 95 72 71 58 42 34
336 3 44 71 303 229 199 244 192 67 91 78 97 87 86 108 127 146 146 153 157 152 144 143 145 144 138 139 137 135 136 135 131 124 120 119 118 117 117 117 114 112 104 92 63 20 24 19 12
319 46 65 65 287 250 250 250 237 144 71 34 35 84 98 161 164 152 146 149 155 147 145 144 147 144 140 138 138 138 137 135 133 129 124 121 119 117 114 110 104 95 87 74 44 358 357 0 349
171 80 70 198 258 245 264 192 207 45 93 49 86 55 56 145 151 144 145 149 150 148 147 146 146 146 142 139 140 140 139 138 137 133 128 125 120 114 108 103 95 84 65 44 13 345 338 338 327
144 91 186 175 222 280 216 149 102 129 98 51 89 67 111 145 150 153 152 151 149 151 151 152 151 151 147 144 143 143 142 142 139 135 132 129 121 115 111 98 76 49 24 5 352 336 323 319 312
170 98 121 213 198 246 124 105 110 76 60 122 103 181 176 171 159 151 153 151 150 153 157 158 160 159 157 155 154 153 155 152 147 144 141 140 128 117 109 91 53 4 345 337 337 332 324 324 326
174 80 182 213 171 223 160 121 125 112 90 72 12 176 183 168 152 151 152 150 155 160 163 165 166 166 167 168 165 166 167 165 159 160 164 167 164 155 165 182 327 317 314 308 305 297 293 307 322
126 138 207 204 174 174 158 141 141 122 109 92 96 119 162 157 157 156 157 155 160 162 171 171 169 170 171 180 181 181 181 174 173 181 185 188 196 202 206 230 239 253 279 288 296 300 301 304 317
186 182 203 243 199 163 144 116 134 128 117 191 154 138 157 163 160 157 153 155 156 165 170 167 169 173 175 182 192 193 194 191 197 199 199 204 208 214 233 242 249 254 265 276 281 287 289 295 298
171 248 171 161 169 150 141 140 105 152 128 170 163 160 166 165 164 161 154 156 161 168 174 180 181 185 191 190 192 191 193 198 204 204 204 209 222 244 253 262 268 272 275 279 280 279 283 288 296
202 194 169 146 146 130 133 112 124 108 148 159 162 162 160 162 161 162 161 161 167 178 183 193 201 203 212 208 213 215 220 223 226 232 234 236 243 255 266 273 278 284 289 292 292 288 283 283 283
185 100 91 114 121 106 113 133 123 164 162 158 165 159 160 163 166 167 168 173 177 187 190 185 193 204 215 216 220 221 227 238 245 247 249 251 256 262 269 275 281 286 291 298 302 298 291 288 288
85 83 53 48 124 109 112 350 210 167 173 156 156 154 156 160 162 170 174 182 184 194 196 196 195 200 210 218 222 223 224 228 236 248 253 260 262 266 271 276 280 283 288 292 296 297 299 298 294
68 55 94 284 114 153 146 233 142 168 171 157 154 156 157 156 166 172 180 186 192 195 201 212 223 224 220 221 219 218 221 225 229 236 242 247 252 260 268 273 280 286 291 294 296 296 294 294 293
21 165 175 143 212 147 158 252 161 176 175 160 166 165 164 164 169 175 184 194 203 206 205 206 211 216 218 220 224 228 230 232 233 232 241 252 262 271 280 288 291 292 294 295 295 296 297 297 295
189 170 227 210 200 196 190 257 159 179 178 169 176 177 176 176 176 184 192 202 211 215 217 214 210 210 209 208 212 214 217 226 237 251 264 273 280 284 290 292 291 290 290 291 293 297 299 301 303
143 151 179 256 156 153 221 247 185 186 189 171 180 185 182 182 185 180 185 202 234 246 248 235 228 217 208 209 215 222 222 233 246 266 283 292 299 300 298 297 294 302 304 306 311 312 310 307 311
138 143 224 310 196 180 202 243 181 178 207 193 183 188 186 185 177 174 183 190 200 209 219 222 224 223 223 226 231 226 230 241 285 307 313 313 312 316 313 318 327 328 328 327 325 330 334 332 329
173 167 199 207 108 50 103 305 201 207 177 200 208 203 194 188 174 171 167 161 158 164 165 175 181 189 193 196 209 215 225 240 268 304 319 336 350 344 355 1 3 2 1 360 3 2 1 8 2
246 205 192 159 131 206 176 252 252 194 179 192 189 195 192 181 175 173 168 153 143 138 137 146 153 163 169 178 201 203 201 173 118 70 47 38 28 29 29 26 22 14 12 9 12 13 9 9 21
226 171 181 169 194 126 179 167 250 152 202 213 193 188 189 182 178 170 158 151 143 135 132 128 124 120 116 120 112 112 113 98 85 72 58 45 33 31 28 26 24 15 15 18 18 15 13 9 10
247 107 54 60 119 200 208 194 233 185 211 220 174 180 184 179 174 163 157 154 144 135 132 127 123 109 98 96 95 90 87 84 78 69 52 47 41 37 35 35 34 32 30 27 23 19 16 15 13
122 75 316 315 333 232 213 184 235 236 257 221 184 171 177 176 170 166 166 159 151 145 137 126 115 104 85 76 80 80 81 80 72 65 55 52 47 47 46 41 36 31 29 26 23 13 9 10 6
188 166 171 246 227 266 97 224 244 291 281 284 175 163 171 174 169 172 167 159 151 150 142 126 114 103 85 66 68 73 73 60 55 55 55 46 40 43 42 38 31 27 24 23 17 10 10 9 5
178 177 197 176 35 83 219 292 73 22 17 115 142 152 162 169 170 171 164 158 151 154 143 129 122 105 91 76 68 75 66 64 51 47 37 32 39 36 29 26 24 23 21 19 18 14 10 6 2
141 333 289 18 198 226 277 294 256 4 62 103 147 151 155 164 171 168 164 162 149 163 149 142 122 107 96 73 55 67 74 61 47 34 28 21 35 31 18 15 17 19 21 17 14 9 6 5 1
314 24 48 110 65 193 292 262 224 271 171 152 139 152 158 166 169 167 163 159 153 163 161 157 165 114 94 83 124 58 54 46 40 23 19 18 48 40 22 12 13 18 22 18 12 6 2 0 357
72 186 127 129 264 158 113 275 337 168 154 147 149 156 164 170 167 163 162 161 164 159 163 170 168 154 37 88 124 54 42 32 36 18 23 22 48 47 30 20 21 23 24 19 13 9 3 358 356